IBE282 KJFK-LEMD

Flight info

Callsign IBE282
Flight time N/A
Altitude 37000
Route KJFK SHIPP Y487 ISLES JENYY DOVEY 4200N/06000W 4400N/05000W 4700N/04000W 4800N/03000W 4500N/02000W RETEN EPOPO ADORO ZMR LEMD
Aircraft A359/H-SDE2E3FGHIRWY/LB1

Departure

Time 2026-05-05 20:02
Airport John F. Kennedy International Airport (KJFK)

Arrival

Time N/A
Airport Adolfo Suárez Madrid–Barajas Airport (LEMD)
Time Latitude Longitude Altitude Speed Heading
2026-05-05 19:31 40.65078 -73.79027 30 ft 0 kts 311°
2026-05-05 19:53 40.65079 -73.79028 28 ft 0 kts 318°
2026-05-05 19:53 40.65084 -73.79031 28 ft 2 kts 327°
2026-05-05 19:53 40.65098 -73.79027 30 ft 1 kts 26°
2026-05-05 19:54 40.65099 -73.79027 30 ft 0 kts 29°
2026-05-05 19:54 40.65118 -73.78999 30 ft 13 kts 63°
2026-05-05 19:54 40.65126 -73.78956 27 ft 0 kts 79°
2026-05-05 19:56 40.65129 -73.78935 26 ft 9 kts 79°
2026-05-05 19:56 40.65139 -73.78823 30 ft 15 kts 83°
2026-05-05 19:56 40.65143 -73.78794 29 ft 0 kts 80°
2026-05-05 19:56 40.65150 -73.78754 26 ft 9 kts 71°
2026-05-05 19:57 40.65193 -73.78633 26 ft 20 kts 63°
2026-05-05 19:57 40.65237 -73.78526 26 ft 0 kts 61°
2026-05-05 19:57 40.65252 -73.78492 26 ft 9 kts 57°
2026-05-05 19:57 40.65326 -73.78471 26 ft 14 kts 340°
2026-05-05 19:58 40.65434 -73.78563 27 ft 23 kts 311°
2026-05-05 19:58 40.65528 -73.78753 32 ft 16 kts 300°
2026-05-05 19:58 40.65560 -73.78826 31 ft 13 kts 300°
2026-05-05 19:58 40.65611 -73.78941 29 ft 5 kts 300°
2026-05-05 19:59 40.65619 -73.78958 31 ft 6 kts 300°
2026-05-05 19:59 40.65634 -73.78992 30 ft 2 kts 300°
2026-05-05 19:59 40.65657 -73.79033 32 ft 4 kts 320°
2026-05-05 19:59 40.65658 -73.79033 32 ft 0 kts 322°
2026-05-05 20:00 40.65672 -73.79047 26 ft 5 kts 325°
2026-05-05 20:00 40.65711 -73.79047 27 ft 8 kts 18°
2026-05-05 20:01 40.65759 -73.79001 32 ft 8 kts 66°
2026-05-05 20:01 40.65753 -73.78971 35 ft 0 kts 117°
2026-05-05 20:01 40.65745 -73.78953 20 ft 7 kts 120°
2026-05-05 20:01 40.65638 -73.78721 26 ft 63 kts 121°
2026-05-05 20:02 40.65287 -73.77950 30 ft 131 kts 122°
2026-05-05 20:02 40.64721 -73.76647 103 ft 181 kts 127°
2026-05-05 20:02 40.64082 -73.75222 973 ft 179 kts 131°
2026-05-05 20:02 40.63202 -73.74122 1780 ft 176 kts 155°
2026-05-05 20:03 40.62193 -73.73157 2538 ft 184 kts 146°
2026-05-05 20:03 40.61352 -73.71833 3314 ft 195 kts 134°
2026-05-05 20:03 40.60536 -73.70331 3904 ft 209 kts 136°
2026-05-05 20:03 40.59547 -73.68749 4243 ft 239 kts 135°
2026-05-05 20:04 40.58485 -73.66917 4782 ft 262 kts 133°
2026-05-05 20:04 40.57318 -73.64968 5387 ft 279 kts 136°
2026-05-05 20:04 40.56091 -73.62979 6330 ft 282 kts 135°
2026-05-05 20:04 40.54869 -73.60935 7188 ft 285 kts 138°
2026-05-05 20:05 40.53566 -73.58968 8056 ft 286 kts 137°
2026-05-05 20:05 40.52363 -73.56849 8961 ft 291 kts 134°
2026-05-05 20:05 40.51154 -73.54722 9781 ft 292 kts 134°
2026-05-05 20:05 40.49962 -73.52540 10521 ft 296 kts 131°
2026-05-05 20:06 40.48846 -73.50181 11015 ft 313 kts 126°
2026-05-05 20:06 40.47732 -73.47613 11306 ft 333 kts 125°
2026-05-05 20:06 40.46567 -73.44895 11561 ft 351 kts 124°
2026-05-05 20:06 40.45272 -73.42083 11830 ft 365 kts 131°
2026-05-05 20:07 40.43679 -73.39477 12219 ft 375 kts 136°
2026-05-05 20:07 40.41923 -73.36907 13190 ft 367 kts 138°
2026-05-05 20:07 40.40220 -73.34541 14222 ft 358 kts 139°
2026-05-05 20:07 40.38486 -73.32187 15122 ft 351 kts 139°
2026-05-05 20:08 40.36817 -73.29939 15977 ft 344 kts 139°
2026-05-05 20:08 40.35157 -73.27704 16692 ft 342 kts 139°
2026-05-05 20:08 40.33543 -73.25408 17319 ft 344 kts 133°
2026-05-05 20:08 40.32133 -73.22851 17876 ft 347 kts 127°
2026-05-05 20:09 40.30830 -73.20178 18409 ft 349 kts 125°
2026-05-05 20:09 40.29566 -73.17439 18821 ft 353 kts 124°
2026-05-05 20:09 40.28311 -73.14652 19183 ft 357 kts 124°
2026-05-05 20:09 40.27056 -73.11841 19622 ft 358 kts 123°
2026-05-05 20:10 40.25797 -73.09028 20071 ft 360 kts 124°
2026-05-05 20:10 40.24524 -73.06200 20456 ft 363 kts 123°
2026-05-05 20:10 40.23232 -73.03347 20908 ft 363 kts 123°
2026-05-05 20:10 40.21932 -73.00487 21271 ft 367 kts 124°
2026-05-05 20:11 40.20619 -72.97608 21618 ft 370 kts 123°
2026-05-05 20:11 40.19300 -72.94720 22070 ft 370 kts 124°
2026-05-05 20:11 40.17982 -72.91835 22531 ft 370 kts 124°
2026-05-05 20:11 40.16653 -72.88930 22923 ft 372 kts 124°
2026-05-05 20:12 40.15319 -72.86019 23270 ft 375 kts 124°
2026-05-05 20:12 40.13975 -72.83087 23592 ft 377 kts 124°
2026-05-05 20:12 40.12625 -72.80146 23880 ft 380 kts 124°
2026-05-05 20:12 40.11262 -72.77178 24182 ft 381 kts 124°
2026-05-05 20:13 40.09893 -72.74199 24457 ft 384 kts 123°
2026-05-05 20:13 40.08518 -72.71210 24718 ft 386 kts 124°
2026-05-05 20:13 40.07126 -72.68186 24962 ft 389 kts 123°
2026-05-05 20:13 40.05724 -72.65144 25231 ft 391 kts 123°
2026-05-05 20:14 40.04323 -72.62108 25537 ft 392 kts 123°
2026-05-05 20:14 40.02908 -72.59043 25827 ft 394 kts 123°
2026-05-05 20:14 40.01496 -72.55986 26156 ft 394 kts 123°
2026-05-05 20:14 40.00074 -72.52911 26431 ft 396 kts 123°
2026-05-05 20:15 39.98648 -72.49833 26648 ft 399 kts 123°
2026-05-05 20:15 39.97208 -72.46729 26960 ft 399 kts 123°
2026-05-05 20:15 39.95774 -72.43640 27249 ft 400 kts 123°
2026-05-05 20:15 39.94319 -72.40507 27438 ft 404 kts 123°
2026-05-05 20:16 39.92863 -72.37378 27685 ft 405 kts 122°
2026-05-05 20:16 39.91399 -72.34233 28024 ft 405 kts 122°
2026-05-05 20:16 39.89951 -72.31123 28152 ft 410 kts 122°
2026-05-05 20:16 39.88461 -72.27928 28396 ft 411 kts 122°
2026-05-05 20:17 39.86968 -72.24731 28735 ft 410 kts 123°
2026-05-05 20:17 39.85482 -72.21552 28949 ft 413 kts 122°
2026-05-05 20:17 39.84002 -72.18389 29148 ft 415 kts 122°
2026-05-05 20:17 39.82477 -72.15133 29348 ft 417 kts 122°
2026-05-05 20:18 39.80985 -72.11951 29541 ft 419 kts 122°
2026-05-05 20:18 39.79469 -72.08721 29771 ft 420 kts 122°
2026-05-05 20:18 39.77942 -72.05471 30046 ft 420 kts 122°
2026-05-05 20:18 39.76417 -72.02227 30226 ft 421 kts 122°
2026-05-05 20:19 39.74887 -71.98977 30378 ft 423 kts 122°
2026-05-05 20:19 39.73348 -71.95711 30614 ft 422 kts 122°
2026-05-05 20:19 39.71817 -71.92466 30844 ft 421 kts 122°
2026-05-05 20:19 39.70282 -71.89216 31096 ft 420 kts 123°
2026-05-05 20:20 39.68757 -71.85989 31284 ft 420 kts 123°
2026-05-05 20:20 39.67742 -71.83843 31406 ft 419 kts 123°
2026-05-05 20:20 39.65720 -71.79573 31670 ft 419 kts 123°
2026-05-05 20:20 39.64689 -71.77399 31774 ft 419 kts 123°
2026-05-05 20:21 39.62668 -71.73142 32012 ft 418 kts 123°
2026-05-05 20:21 39.61141 -71.69929 32185 ft 418 kts 123°
2026-05-05 20:21 39.60110 -71.67761 32299 ft 418 kts 123°
2026-05-05 20:21 39.58601 -71.64591 32442 ft 418 kts 123°
2026-05-05 20:22 39.57072 -71.61381 32580 ft 418 kts 123°
2026-05-05 20:22 39.55549 -71.58188 32729 ft 417 kts 123°
2026-05-05 20:22 39.54024 -71.54994 32870 ft 417 kts 123°
2026-05-05 20:22 39.52499 -71.51800 33120 ft 414 kts 123°
2026-05-05 20:23 39.50984 -71.48633 33268 ft 413 kts 123°
2026-05-05 20:23 39.49471 -71.45475 33420 ft 412 kts 123°
2026-05-05 20:23 39.47958 -71.42318 33470 ft 413 kts 123°
2026-05-05 20:24 39.45335 -71.35720 33647 ft 414 kts 110°
2026-05-05 20:24 39.44517 -71.32155 33797 ft 413 kts 102°
2026-05-05 20:24 39.44086 -71.28479 33829 ft 414 kts 93°
2026-05-05 20:25 39.44459 -71.21067 33975 ft 411 kts 77°
2026-05-05 20:25 39.45666 -71.13806 34117 ft 411 kts 75°
2026-05-05 20:26 39.46948 -71.06643 34237 ft 412 kts 75°
2026-05-05 20:26 39.48219 -70.99416 34312 ft 413 kts 76°
2026-05-05 20:27 39.49465 -70.92169 34404 ft 413 kts 76°
2026-05-05 20:27 39.50710 -70.84863 34298 ft 421 kts 76°
2026-05-05 20:27 39.51346 -70.81121 34113 ft 429 kts 76°
2026-05-05 20:28 39.51991 -70.77324 34055 ft 433 kts 76°
2026-05-05 20:28 39.53286 -70.69656 34079 ft 439 kts 76°
2026-05-05 20:29 39.54599 -70.61855 34075 ft 446 kts 77°
2026-05-05 20:29 39.55928 -70.53929 34059 ft 454 kts 77°
2026-05-05 20:30 39.57274 -70.45863 34085 ft 461 kts 77°
2026-05-05 20:30 39.58630 -70.37698 34078 ft 469 kts 77°
2026-05-05 20:31 39.60017 -70.29310 34067 ft 478 kts 77°
2026-05-05 20:31 39.61421 -70.20778 34086 ft 487 kts 77°
2026-05-05 20:32 39.62836 -70.12140 34091 ft 495 kts 77°
2026-05-05 20:32 39.64270 -70.03330 34082 ft 504 kts 77°
2026-05-05 20:33 39.65724 -69.94360 34081 ft 512 kts 78°
2026-05-05 20:33 39.67196 -69.85234 34097 ft 519 kts 78°
2026-05-05 20:34 39.68677 -69.75997 34103 ft 525 kts 78°
2026-05-05 20:34 39.70157 -69.66719 34083 ft 528 kts 78°
2026-05-05 20:35 39.71639 -69.57376 34098 ft 530 kts 78°
2026-05-05 20:35 39.73126 -69.47957 34110 ft 531 kts 78°
2026-05-05 20:36 39.74594 -69.38601 34097 ft 530 kts 78°
2026-05-05 20:36 39.76068 -69.29154 34094 ft 530 kts 78°
2026-05-05 20:37 39.77520 -69.19797 34117 ft 530 kts 78°
2026-05-05 20:37 39.78965 -69.10431 34115 ft 529 kts 79°
2026-05-05 20:38 39.80411 -69.01002 34099 ft 528 kts 79°
2026-05-05 20:38 39.81834 -68.91677 34110 ft 529 kts 79°
2026-05-05 20:39 39.83258 -68.82294 34107 ft 529 kts 79°
2026-05-05 20:39 39.84677 -68.72880 34126 ft 530 kts 79°
2026-05-05 20:40 39.86084 -68.63496 34132 ft 530 kts 79°
2026-05-05 20:40 39.87487 -68.54088 34119 ft 529 kts 79°
2026-05-05 20:41 39.88881 -68.44680 34135 ft 529 kts 79°
2026-05-05 20:41 39.90270 -68.35256 34133 ft 529 kts 79°
2026-05-05 20:42 39.91652 -68.25823 34126 ft 530 kts 79°
2026-05-05 20:42 39.93027 -68.16382 34142 ft 530 kts 79°
2026-05-05 20:42 39.93885 -68.11773 34131 ft 529 kts 68°
2026-05-05 20:43 39.95561 -68.07540 34127 ft 527 kts 54°
2026-05-05 20:43 39.97992 -68.03973 34142 ft 524 kts 39°
2026-05-05 20:43 40.00987 -68.01314 34144 ft 521 kts 25°
2026-05-05 20:44 40.07535 -67.97226 34128 ft 522 kts 24°
2026-05-05 20:44 40.13874 -67.92537 34126 ft 525 kts 31°
2026-05-05 20:45 40.22902 -67.84361 34119 ft 526 kts 34°
2026-05-05 20:45 40.28830 -67.78741 34124 ft 525 kts 34°
2026-05-05 20:46 40.34765 -67.73143 34123 ft 526 kts 34°
2026-05-05 20:46 40.40716 -67.67552 34129 ft 526 kts 34°
2026-05-05 20:47 40.46667 -67.61958 34121 ft 525 kts 34°
2026-05-05 20:47 40.52579 -67.56389 34119 ft 525 kts 34°
2026-05-05 20:48 40.58563 -67.50741 34126 ft 526 kts 34°
2026-05-05 20:48 40.64518 -67.45103 34119 ft 526 kts 34°
2026-05-05 20:49 40.70391 -67.39531 34123 ft 526 kts 34°
2026-05-05 20:49 40.76323 -67.33890 34111 ft 525 kts 34°
2026-05-05 20:50 40.82254 -67.28239 34112 ft 525 kts 35°
2026-05-05 20:50 40.88178 -67.22579 34106 ft 526 kts 34°
2026-05-05 20:51 40.94120 -67.16892 34106 ft 526 kts 35°
2026-05-05 20:51 41.00043 -67.11210 34109 ft 526 kts 35°
2026-05-05 20:52 41.05966 -67.05502 34100 ft 526 kts 36°
2026-05-05 20:52 41.11152 -66.98687 34110 ft 527 kts 53°
2026-05-05 20:53 41.14643 -66.90165 34100 ft 527 kts 67°
2026-05-05 20:53 41.17363 -66.81088 34110 ft 527 kts 70°
2026-05-05 20:54 41.19920 -66.72026 34109 ft 527 kts 70°
2026-05-05 20:54 41.22525 -66.62894 34120 ft 527 kts 69°
2026-05-05 20:55 41.25148 -66.53806 34112 ft 526 kts 69°
2026-05-05 20:55 41.27765 -66.44749 34115 ft 526 kts 69°
2026-05-05 20:56 41.30378 -66.35672 34121 ft 526 kts 70°
2026-05-05 20:56 41.32986 -66.26574 34116 ft 525 kts 70°
2026-05-05 20:57 41.35588 -66.17465 34123 ft 525 kts 70°
2026-05-05 20:57 41.38170 -66.08388 34122 ft 525 kts 70°
2026-05-05 20:58 41.40745 -65.99308 34131 ft 525 kts 70°
2026-05-05 20:58 41.43328 -65.90165 34132 ft 524 kts 70°
2026-05-05 20:59 41.45883 -65.81094 34127 ft 524 kts 70°
2026-05-05 20:59 41.48432 -65.72004 34132 ft 524 kts 70°
2026-05-05 21:00 41.50974 -65.62909 34134 ft 524 kts 70°
2026-05-05 21:00 41.53532 -65.53725 34135 ft 524 kts 71°
2026-05-05 21:01 41.56044 -65.44670 34137 ft 524 kts 71°
2026-05-05 21:01 41.58565 -65.35552 34143 ft 524 kts 71°
2026-05-05 21:02 41.60656 -65.27965 34137 ft 523 kts 71°
2026-05-05 21:02 41.63163 -65.18833 34141 ft 523 kts 71°
2026-05-05 21:03 41.65657 -65.09722 34152 ft 522 kts 71°
2026-05-05 21:03 41.68147 -65.00591 34149 ft 522 kts 71°
2026-05-05 21:04 41.70630 -64.91449 34148 ft 522 kts 71°
2026-05-05 21:04 41.73099 -64.82330 34144 ft 522 kts 71°
2026-05-05 21:05 41.75575 -64.73189 34152 ft 521 kts 71°
2026-05-05 21:05 41.78031 -64.64061 34150 ft 522 kts 71°
2026-05-05 21:06 41.80545 -64.54933 34152 ft 522 kts 70°
2026-05-05 21:06 41.83068 -64.45807 34153 ft 522 kts 70°
2026-05-05 21:07 41.85587 -64.36635 34159 ft 523 kts 71°
2026-05-05 21:07 41.88088 -64.27469 34164 ft 522 kts 71°
2026-05-05 21:08 41.90569 -64.18332 34153 ft 521 kts 71°
2026-05-05 21:08 41.93043 -64.09181 34172 ft 520 kts 71°
2026-05-05 21:09 41.95505 -64.00045 34151 ft 521 kts 71°
2026-05-05 21:09 41.97965 -63.90890 34160 ft 520 kts 71°
2026-05-05 21:10 42.00398 -63.81798 34169 ft 520 kts 71°
2026-05-05 21:10 42.02840 -63.72640 34172 ft 520 kts 71°
2026-05-05 21:11 42.05290 -63.63413 34157 ft 520 kts 71°
2026-05-05 21:11 42.07698 -63.54306 34168 ft 520 kts 70°
2026-05-05 21:12 42.10112 -63.45146 34169 ft 519 kts 71°
2026-05-05 21:12 42.12522 -63.35968 34164 ft 520 kts 71°
2026-05-05 21:13 42.14929 -63.26767 34174 ft 520 kts 71°
2026-05-05 21:13 42.17320 -63.17593 34181 ft 520 kts 71°
2026-05-05 21:14 42.19718 -63.08356 34181 ft 520 kts 71°
2026-05-05 21:14 42.22096 -62.99155 34175 ft 520 kts 71°
2026-05-05 21:15 42.24470 -62.89940 34180 ft 520 kts 71°
2026-05-05 21:15 42.26839 -62.80707 34180 ft 520 kts 71°
2026-05-05 21:16 42.29184 -62.71532 34178 ft 520 kts 71°
2026-05-05 21:16 42.31544 -62.62264 34181 ft 520 kts 71°
2026-05-05 21:17 42.33890 -62.53014 34180 ft 520 kts 71°
2026-05-05 21:17 42.36222 -62.43780 34184 ft 520 kts 71°
2026-05-05 21:18 42.38550 -62.34529 34184 ft 519 kts 71°
2026-05-05 21:18 42.40865 -62.25294 34191 ft 519 kts 71°
2026-05-05 21:19 42.43182 -62.16011 34189 ft 519 kts 71°
2026-05-05 21:19 42.45479 -62.06777 34198 ft 518 kts 71°
2026-05-05 21:20 42.47763 -61.97552 34179 ft 519 kts 71°
2026-05-05 21:20 42.50050 -61.88283 34190 ft 519 kts 71°
2026-05-05 21:21 42.52336 -61.78980 34196 ft 519 kts 71°
2026-05-05 21:21 42.54615 -61.69665 34196 ft 519 kts 71°
2026-05-05 21:22 42.56872 -61.60408 34198 ft 518 kts 71°
2026-05-05 21:22 42.59128 -61.51115 34198 ft 518 kts 71°
2026-05-05 21:23 42.61378 -61.41808 34198 ft 518 kts 71°
2026-05-05 21:23 42.63625 -61.32472 34203 ft 518 kts 71°
2026-05-05 21:24 42.65857 -61.23163 34203 ft 517 kts 71°
2026-05-05 21:24 42.68065 -61.13920 34204 ft 517 kts 71°
2026-05-05 21:25 42.70276 -61.04626 34206 ft 517 kts 71°
2026-05-05 21:25 42.72482 -60.95312 34216 ft 517 kts 71°
2026-05-05 21:26 42.74678 -60.85999 34209 ft 517 kts 71°
2026-05-05 21:26 42.76878 -60.76637 34209 ft 517 kts 71°
2026-05-05 21:27 42.79056 -60.67324 34215 ft 517 kts 71°
2026-05-05 21:27 42.81237 -60.57961 34214 ft 518 kts 71°
2026-05-05 21:28 42.83391 -60.48677 34217 ft 518 kts 72°
2026-05-05 21:28 42.85555 -60.39310 34218 ft 518 kts 72°
2026-05-05 21:29 42.87707 -60.29954 34218 ft 518 kts 72°
2026-05-05 21:29 42.89854 -60.20581 34226 ft 518 kts 72°
2026-05-05 21:30 42.91993 -60.11200 34225 ft 518 kts 72°
2026-05-05 21:30 42.94129 -60.01794 34226 ft 518 kts 72°
2026-05-05 21:31 42.96258 -59.92382 34220 ft 518 kts 72°
2026-05-05 21:31 42.98377 -59.82970 34226 ft 518 kts 72°
2026-05-05 21:32 43.00484 -59.73566 34212 ft 518 kts 72°
2026-05-05 21:32 43.02588 -59.64141 34228 ft 517 kts 72°
2026-05-05 21:33 43.04664 -59.54798 34228 ft 517 kts 72°
2026-05-05 21:33 43.06749 -59.45375 34228 ft 518 kts 72°
2026-05-05 21:34 43.08840 -59.35884 34240 ft 517 kts 72°
2026-05-05 21:34 43.10903 -59.26477 34239 ft 517 kts 72°
2026-05-05 21:35 43.12968 -59.17019 34224 ft 518 kts 72°
2026-05-05 21:35 43.15008 -59.07634 34230 ft 518 kts 72°
2026-05-05 21:36 43.17056 -58.98174 34241 ft 518 kts 72°
2026-05-05 21:36 43.19091 -58.88723 34251 ft 518 kts 72°
2026-05-05 21:37 43.21123 -58.79251 34237 ft 518 kts 72°
2026-05-05 21:37 43.23146 -58.69777 34260 ft 518 kts 72°
2026-05-05 21:38 43.25162 -58.60289 34235 ft 518 kts 72°
2026-05-05 21:38 43.27172 -58.50792 34246 ft 517 kts 72°
2026-05-05 21:39 43.29161 -58.41347 34250 ft 517 kts 72°
2026-05-05 21:39 43.31151 -58.31854 34248 ft 517 kts 72°
2026-05-05 21:40 43.33131 -58.22369 34250 ft 517 kts 72°
2026-05-05 21:40 43.35104 -58.12867 34258 ft 517 kts 72°
2026-05-05 21:41 43.37073 -58.03344 34252 ft 517 kts 72°
2026-05-05 21:41 43.39028 -57.93844 34253 ft 517 kts 72°
2026-05-05 21:42 43.40983 -57.84302 34255 ft 517 kts 72°
2026-05-05 21:42 43.42923 -57.74784 34260 ft 517 kts 72°
2026-05-05 21:43 43.44546 -57.66786 34264 ft 517 kts 72°
2026-05-05 21:43 43.46460 -57.57316 34259 ft 518 kts 72°
2026-05-05 21:44 43.48389 -57.47729 34254 ft 518 kts 72°
2026-05-05 21:44 43.50302 -57.38170 34256 ft 518 kts 72°
2026-05-05 21:45 43.52205 -57.28617 34271 ft 518 kts 72°
2026-05-05 21:45 43.54107 -57.19025 34261 ft 517 kts 72°
2026-05-05 21:46 43.55998 -57.09444 34268 ft 518 kts 72°
2026-05-05 21:46 43.57866 -56.99927 34268 ft 518 kts 72°
2026-05-05 21:47 43.59744 -56.90318 34276 ft 518 kts 72°
2026-05-05 21:47 43.61610 -56.80714 34268 ft 518 kts 72°
2026-05-05 21:48 43.63468 -56.71117 34266 ft 518 kts 72°
2026-05-05 21:48 43.65321 -56.61488 34273 ft 518 kts 72°
2026-05-05 21:49 43.67166 -56.51858 34268 ft 518 kts 72°
2026-05-05 21:49 43.68991 -56.42286 34272 ft 518 kts 72°
2026-05-05 21:50 43.70830 -56.32588 34270 ft 518 kts 72°
2026-05-05 21:50 43.72636 -56.23016 34271 ft 519 kts 72°
2026-05-05 21:51 43.74456 -56.13322 34274 ft 519 kts 72°
2026-05-05 21:51 43.76252 -56.03707 34275 ft 519 kts 72°
2026-05-05 21:52 43.78947 -55.89183 34279 ft 519 kts 72°
2026-05-05 21:53 43.80740 -55.79461 34277 ft 519 kts 72°
2026-05-05 21:53 43.82517 -55.69778 34279 ft 520 kts 73°
2026-05-05 21:54 43.84293 -55.60044 34290 ft 521 kts 72°
2026-05-05 21:54 43.86064 -55.50283 34284 ft 521 kts 72°
2026-05-05 21:55 43.87811 -55.40612 34281 ft 521 kts 73°
2026-05-05 21:55 43.89557 -55.30889 34284 ft 521 kts 73°
2026-05-05 21:56 43.91303 -55.21119 34301 ft 521 kts 72°
2026-05-05 21:56 43.93035 -55.11369 34285 ft 521 kts 73°
2026-05-05 21:57 43.94763 -55.01600 34287 ft 522 kts 73°
2026-05-05 21:57 43.96493 -54.91760 34286 ft 523 kts 73°
2026-05-05 21:58 43.98207 -54.81955 34287 ft 523 kts 73°
2026-05-05 21:58 43.99916 -54.72121 34291 ft 523 kts 73°
2026-05-05 21:59 44.01613 -54.62309 34287 ft 523 kts 73°
2026-05-05 21:59 44.03301 -54.52492 34284 ft 523 kts 73°
2026-05-05 22:00 44.04991 -54.42614 34281 ft 525 kts 73°
2026-05-05 22:00 44.06674 -54.32714 34292 ft 525 kts 73°
2026-05-05 22:01 44.08344 -54.22840 34294 ft 526 kts 73°
2026-05-05 22:01 44.10002 -54.12975 34290 ft 526 kts 73°
2026-05-05 22:02 44.11660 -54.03057 34293 ft 526 kts 73°
2026-05-05 22:02 44.13309 -53.93133 34309 ft 526 kts 73°
2026-05-05 22:03 44.14960 -53.83144 34291 ft 528 kts 73°
2026-05-05 22:03 44.16592 -53.73217 34296 ft 528 kts 73°
2026-05-05 22:04 44.18221 -53.63241 34297 ft 529 kts 73°
2026-05-05 22:04 44.19842 -53.53256 34302 ft 529 kts 73°
2026-05-05 22:05 44.21456 -53.43260 34301 ft 530 kts 73°
2026-05-05 22:05 44.23060 -53.33267 34300 ft 531 kts 73°
2026-05-05 22:06 44.24674 -53.23153 34302 ft 532 kts 73°
2026-05-05 22:06 44.26267 -53.13103 34300 ft 533 kts 74°
2026-05-05 22:07 44.27857 -53.03006 34310 ft 534 kts 73°
2026-05-05 22:07 44.29443 -52.92880 34301 ft 534 kts 73°
2026-05-05 22:08 44.31025 -52.82711 34307 ft 535 kts 74°
2026-05-05 22:08 44.32593 -52.72574 34290 ft 535 kts 74°
2026-05-05 22:09 44.34161 -52.62375 34327 ft 535 kts 75°
2026-05-05 22:09 44.35716 -52.52185 34310 ft 535 kts 75°
2026-05-05 22:10 44.37249 -52.42082 34306 ft 535 kts 75°
2026-05-05 22:10 44.38784 -52.31902 34309 ft 536 kts 75°
2026-05-05 22:11 44.40312 -52.21708 34309 ft 536 kts 75°
2026-05-05 22:11 44.41831 -52.11500 34311 ft 536 kts 75°
2026-05-05 22:12 44.43346 -52.01255 34312 ft 537 kts 76°
2026-05-05 22:12 44.44848 -51.91035 34312 ft 537 kts 76°
2026-05-05 22:13 44.46343 -51.80790 34317 ft 537 kts 76°
2026-05-05 22:13 44.47824 -51.70569 34313 ft 537 kts 76°
2026-05-05 22:14 44.49314 -51.60220 34318 ft 538 kts 76°
2026-05-05 22:14 44.50771 -51.50036 34312 ft 538 kts 76°
2026-05-05 22:15 44.52236 -51.39730 34318 ft 540 kts 76°
2026-05-05 22:15 44.53693 -51.29408 34334 ft 542 kts 76°
2026-05-05 22:16 44.55146 -51.19037 34319 ft 543 kts 76°
2026-05-05 22:16 44.56595 -51.08623 34320 ft 543 kts 77°
2026-05-05 22:17 44.58032 -50.98218 34322 ft 544 kts 77°
2026-05-05 22:17 44.59460 -50.87808 34320 ft 544 kts 77°
2026-05-05 22:18 44.60892 -50.77303 34316 ft 547 kts 77°
2026-05-05 22:18 44.62318 -50.66763 34330 ft 549 kts 77°
2026-05-05 22:19 44.63722 -50.56297 34321 ft 549 kts 77°
2026-05-05 22:19 44.65126 -50.45756 34321 ft 549 kts 77°
2026-05-05 22:20 44.66526 -50.35176 34327 ft 550 kts 78°
2026-05-05 22:20 44.67910 -50.24633 34309 ft 551 kts 78°
2026-05-05 22:21 44.69296 -50.14007 34323 ft 555 kts 78°
2026-05-05 22:21 44.70680 -50.03305 34329 ft 558 kts 78°
2026-05-05 22:22 44.72063 -49.92526 34332 ft 558 kts 79°
2026-05-05 22:22 44.73422 -49.81849 34328 ft 558 kts 79°
2026-05-05 22:23 44.74783 -49.71071 34329 ft 558 kts 79°
2026-05-05 22:23 44.76141 -49.60233 34319 ft 559 kts 79°
2026-05-05 22:24 44.77473 -49.49516 34343 ft 563 kts 79°
2026-05-05 22:24 44.78819 -49.38604 34328 ft 565 kts 79°
2026-05-05 22:25 44.80148 -49.27736 34328 ft 565 kts 80°
2026-05-05 22:25 44.81471 -49.16829 34328 ft 565 kts 80°
2026-05-05 22:26 44.82787 -49.05884 34350 ft 565 kts 80°
2026-05-05 22:26 44.84087 -48.94987 34323 ft 566 kts 81°
2026-05-05 22:27 44.85391 -48.83958 34331 ft 570 kts 81°
2026-05-05 22:27 44.86464 -48.74819 34331 ft 571 kts 81°
2026-05-05 22:28 44.87752 -48.63754 34328 ft 571 kts 81°
2026-05-05 22:28 44.89026 -48.52706 34335 ft 570 kts 81°
2026-05-05 22:29 44.90289 -48.41669 34335 ft 570 kts 81°
2026-05-05 22:29 44.91544 -48.30595 34322 ft 571 kts 81°
2026-05-05 22:30 44.92795 -48.19456 34331 ft 574 kts 81°
2026-05-05 22:30 44.94035 -48.08316 34335 ft 576 kts 81°
2026-05-05 22:31 44.95264 -47.97181 34333 ft 576 kts 81°
2026-05-05 22:31 44.96490 -47.85961 34334 ft 576 kts 81°
2026-05-05 22:32 44.97697 -47.74807 34337 ft 576 kts 81°
2026-05-05 22:32 44.98899 -47.63596 34336 ft 576 kts 81°
2026-05-05 22:33 45.00075 -47.52524 34337 ft 576 kts 82°
2026-05-05 22:33 45.01251 -47.41346 34339 ft 576 kts 82°
2026-05-05 22:34 45.02421 -47.30112 34345 ft 576 kts 82°
2026-05-05 22:34 45.03579 -47.18893 34346 ft 575 kts 82°
2026-05-05 22:35 45.04719 -47.07734 34345 ft 575 kts 82°
2026-05-05 22:35 45.05857 -46.96474 34345 ft 579 kts 82°
2026-05-05 22:36 45.06987 -46.85181 34345 ft 581 kts 82°
2026-05-05 22:36 45.08106 -46.73891 34358 ft 581 kts 83°
2026-05-05 22:37 45.09216 -46.62574 34347 ft 580 kts 83°
2026-05-05 22:37 45.10315 -46.51244 34350 ft 581 kts 83°
2026-05-05 22:38 45.11403 -46.39911 34328 ft 581 kts 83°
2026-05-05 22:38 45.12482 -46.28545 34361 ft 585 kts 83°
2026-05-05 22:39 45.13550 -46.17174 34350 ft 586 kts 83°
2026-05-05 22:39 45.14614 -46.05718 34350 ft 586 kts 83°
2026-05-05 22:40 45.15669 -45.94235 34359 ft 586 kts 83°
2026-05-05 22:40 45.16709 -45.82786 34368 ft 586 kts 83°
2026-05-05 22:41 45.17738 -45.71332 34354 ft 588 kts 84°
2026-05-05 22:41 45.18759 -45.59826 34359 ft 591 kts 84°
2026-05-05 22:42 45.19773 -45.48264 34361 ft 591 kts 84°
2026-05-05 22:42 45.20776 -45.36706 34376 ft 591 kts 84°
2026-05-05 22:43 45.21768 -45.25120 34361 ft 591 kts 84°
2026-05-05 22:43 45.22750 -45.13511 34361 ft 591 kts 84°
2026-05-05 22:44 45.23721 -45.01890 34361 ft 594 kts 84°
2026-05-05 22:44 45.24682 -44.90244 34381 ft 597 kts 84°
2026-05-05 22:45 45.25638 -44.78508 34359 ft 596 kts 85°
2026-05-05 22:45 45.26577 -44.66842 34366 ft 596 kts 85°
2026-05-05 22:46 45.27505 -44.55147 34364 ft 596 kts 85°
2026-05-05 22:46 45.28422 -44.43445 34372 ft 597 kts 85°
2026-05-05 22:47 45.29327 -44.31734 34366 ft 600 kts 85°
2026-05-05 22:47 45.30226 -44.19939 34374 ft 601 kts 85°
2026-05-05 22:48 45.31111 -44.08171 34371 ft 601 kts 86°
2026-05-05 22:48 45.31988 -43.96340 34369 ft 601 kts 86°
2026-05-05 22:49 45.32852 -43.84515 34366 ft 601 kts 86°
2026-05-05 22:49 45.33701 -43.72729 34366 ft 604 kts 86°
2026-05-05 22:50 45.34551 -43.60752 34367 ft 606 kts 86°
2026-05-05 22:50 45.35379 -43.48901 34380 ft 606 kts 86°
2026-05-05 22:51 45.36203 -43.36940 34367 ft 605 kts 87°
2026-05-05 22:51 45.37010 -43.25042 34364 ft 606 kts 87°
2026-05-05 22:52 45.37806 -43.13124 34338 ft 606 kts 88°
2026-05-05 22:52 45.38593 -43.01130 34370 ft 608 kts 88°
2026-05-05 22:53 45.39360 -42.89252 34354 ft 608 kts 88°
2026-05-05 22:53 45.40121 -42.77268 34356 ft 608 kts 88°
2026-05-05 22:54 45.40872 -42.65256 34377 ft 608 kts 88°
2026-05-05 22:54 45.41607 -42.53294 34365 ft 608 kts 88°
2026-05-05 22:55 45.42332 -42.41285 34361 ft 610 kts 89°
2026-05-05 22:55 45.43046 -42.29210 34372 ft 613 kts 89°
2026-05-05 22:56 45.43752 -42.17093 34367 ft 613 kts 89°
2026-05-05 22:56 45.44444 -42.05010 34375 ft 613 kts 89°
2026-05-05 22:57 45.45124 -41.92890 34369 ft 613 kts 89°
2026-05-05 22:57 45.45787 -41.80832 34325 ft 613 kts 90°
2026-05-05 22:58 45.46443 -41.68642 34366 ft 617 kts 90°
2026-05-05 22:58 45.47088 -41.56424 34368 ft 619 kts 90°
2026-05-05 22:59 45.47720 -41.44240 34365 ft 620 kts 90°
2026-05-05 22:59 45.48343 -41.31991 34363 ft 620 kts 90°
2026-05-05 23:00 45.49249 -41.13621 34381 ft 619 kts 91°
2026-05-05 23:00 45.49837 -41.01374 34369 ft 619 kts 91°
2026-05-05 23:01 45.50414 -40.89079 34366 ft 619 kts 91°
2026-05-05 23:01 45.50974 -40.76853 34366 ft 619 kts 91°
2026-05-05 23:02 45.51522 -40.64620 34372 ft 619 kts 91°
2026-05-05 23:02 45.52057 -40.52366 34367 ft 619 kts 91°
2026-05-05 23:03 45.52580 -40.40110 34362 ft 620 kts 91°
2026-05-05 23:03 45.53087 -40.27898 34365 ft 620 kts 91°
2026-05-05 23:04 45.53587 -40.15550 34375 ft 620 kts 92°
2026-05-05 23:04 45.54068 -40.03354 34367 ft 619 kts 92°
2026-05-05 23:05 45.54538 -39.91069 34367 ft 619 kts 92°
2026-05-05 23:05 45.54995 -39.78805 34356 ft 618 kts 92°
2026-05-05 23:06 45.55440 -39.66523 34361 ft 617 kts 92°
2026-05-05 23:06 45.55867 -39.54323 34359 ft 617 kts 93°
2026-05-05 23:07 45.56283 -39.42080 34360 ft 616 kts 93°
2026-05-05 23:07 45.56684 -39.29858 34356 ft 617 kts 93°
2026-05-05 23:08 45.57008 -39.19713 34355 ft 616 kts 93°
2026-05-05 23:08 45.57387 -39.07469 34351 ft 616 kts 92°
2026-05-05 23:09 45.57753 -38.95266 34354 ft 616 kts 92°
2026-05-05 23:09 45.58107 -38.83011 34350 ft 616 kts 93°
2026-05-05 23:10 45.58445 -38.70829 34348 ft 616 kts 92°
2026-05-05 23:10 45.58772 -38.58574 34341 ft 616 kts 93°
2026-05-05 23:11 45.59085 -38.46332 34320 ft 616 kts 92°
2026-05-05 23:11 45.59385 -38.34121 34331 ft 616 kts 92°
2026-05-05 23:12 45.59673 -38.21868 34348 ft 615 kts 92°
2026-05-05 23:12 45.59946 -38.09725 34347 ft 615 kts 93°
2026-05-05 23:13 45.60206 -37.97524 34349 ft 615 kts 93°
2026-05-05 23:13 45.60454 -37.85311 34332 ft 615 kts 93°
2026-05-05 23:14 45.60687 -37.73146 34342 ft 613 kts 92°
2026-05-05 23:14 45.60909 -37.60911 34341 ft 613 kts 93°
2026-05-05 23:15 45.61115 -37.48790 34334 ft 613 kts 93°
2026-05-05 23:15 45.61311 -37.36556 34331 ft 613 kts 93°
2026-05-05 23:16 45.61491 -37.24527 34328 ft 613 kts 93°
2026-05-05 23:16 45.61660 -37.12337 34316 ft 612 kts 92°
2026-05-05 23:17 45.61817 -37.00205 34318 ft 610 kts 92°
2026-05-05 23:17 45.61962 -36.88064 34317 ft 610 kts 92°
2026-05-05 23:18 45.62092 -36.75929 34312 ft 610 kts 92°
2026-05-05 23:18 45.62208 -36.63829 34306 ft 610 kts 93°
2026-05-05 23:19 45.62312 -36.51702 34307 ft 610 kts 93°
2026-05-05 23:19 45.62404 -36.39581 34298 ft 608 kts 92°
2026-05-05 23:20 45.62483 -36.27506 34298 ft 607 kts 92°
2026-05-05 23:20 45.62548 -36.15466 34290 ft 606 kts 92°
2026-05-05 23:21 45.62601 -36.03515 34285 ft 606 kts 92°
2026-05-05 23:21 45.62641 -35.91390 34282 ft 606 kts 92°
2026-05-05 23:22 45.62668 -35.79381 34262 ft 606 kts 92°
2026-05-05 23:22 45.62684 -35.67397 34268 ft 603 kts 92°
2026-05-05 23:23 45.62686 -35.55396 34269 ft 602 kts 92°
2026-05-05 23:23 45.62676 -35.43485 34262 ft 602 kts 92°
2026-05-05 23:24 45.62653 -35.31494 34260 ft 603 kts 92°
2026-05-05 23:24 45.62618 -35.19535 34253 ft 604 kts 93°
2026-05-05 23:25 45.62570 -35.07521 34247 ft 601 kts 92°
2026-05-05 23:25 45.62511 -34.95620 34246 ft 598 kts 92°
2026-05-05 23:26 45.62439 -34.83726 34243 ft 598 kts 92°
2026-05-05 23:26 45.62355 -34.71897 34244 ft 598 kts 92°
2026-05-05 23:27 45.62258 -34.60019 34245 ft 599 kts 93°
2026-05-05 23:27 45.62149 -34.48096 34260 ft 598 kts 93°
2026-05-05 23:28 45.62027 -34.36187 34258 ft 598 kts 93°
2026-05-05 23:28 45.61894 -34.24295 34259 ft 598 kts 93°
2026-05-05 23:29 45.61749 -34.12509 34244 ft 598 kts 93°
2026-05-05 23:29 45.61591 -34.00612 34245 ft 598 kts 93°
2026-05-05 23:30 45.61420 -33.88718 34259 ft 599 kts 93°
2026-05-05 23:30 45.61236 -33.76859 34264 ft 599 kts 92°
2026-05-05 23:31 45.61042 -33.64988 34264 ft 595 kts 92°
2026-05-05 23:31 45.60836 -33.53181 34270 ft 594 kts 92°
2026-05-05 23:32 45.60618 -33.41392 34276 ft 594 kts 92°
2026-05-05 23:32 45.60387 -33.29549 34276 ft 594 kts 92°
2026-05-05 23:33 45.60145 -33.17741 34285 ft 594 kts 93°
2026-05-05 23:33 45.59892 -33.06081 34280 ft 589 kts 92°
2026-05-05 23:34 45.59628 -32.94356 34297 ft 587 kts 92°
2026-05-05 23:34 45.59353 -32.82738 34292 ft 589 kts 92°
2026-05-05 23:35 45.59065 -32.71035 34302 ft 589 kts 92°
2026-05-05 23:35 45.58765 -32.59329 34302 ft 589 kts 92°
2026-05-05 23:36 45.58453 -32.47633 34310 ft 591 kts 92°
2026-05-05 23:36 45.58127 -32.35924 34311 ft 590 kts 91°
2026-05-05 23:37 45.57790 -32.24185 34316 ft 589 kts 91°
2026-05-05 23:37 45.57444 -32.12534 34318 ft 589 kts 91°
2026-05-05 23:38 45.57083 -32.00823 34319 ft 590 kts 91°
2026-05-05 23:38 45.56711 -31.89127 34323 ft 593 kts 91°
2026-05-05 23:39 45.56324 -31.77344 34324 ft 592 kts 91°
2026-05-05 23:39 45.55927 -31.65643 34331 ft 587 kts 91°
2026-05-05 23:40 45.55522 -31.54034 34346 ft 586 kts 91°
2026-05-05 23:40 45.55108 -31.42473 34332 ft 588 kts 91°
2026-05-05 23:41 45.54678 -31.30804 34331 ft 588 kts 91°
2026-05-05 23:41 45.54236 -31.19165 34338 ft 588 kts 91°
2026-05-05 23:42 45.53781 -31.07514 34363 ft 587 kts 90°
2026-05-05 23:42 45.53315 -30.95868 34342 ft 589 kts 90°
2026-05-05 23:43 45.52837 -30.84194 34347 ft 589 kts 90°
2026-05-05 23:43 45.52347 -30.72542 34347 ft 590 kts 90°
2026-05-05 23:44 45.51844 -30.60852 34347 ft 589 kts 91°
2026-05-05 23:44 45.51328 -30.49145 34347 ft 590 kts 91°
2026-05-05 23:45 45.50801 -30.37505 34347 ft 591 kts 90°
2026-05-05 23:45 45.50262 -30.25804 34350 ft 590 kts 90°
2026-05-05 23:46 45.49712 -30.14135 34350 ft 591 kts 91°
2026-05-05 23:46 45.49149 -30.02467 34357 ft 588 kts 91°
2026-05-05 23:47 45.48576 -29.90847 34348 ft 587 kts 91°
2026-05-05 23:47 45.47993 -29.79231 34320 ft 587 kts 90°
2026-05-05 23:48 45.47398 -29.67638 34352 ft 587 kts 90°
2026-05-05 23:48 45.46792 -29.56053 34353 ft 585 kts 90°
2026-05-05 23:49 45.46180 -29.44580 34355 ft 584 kts 90°
2026-05-05 23:49 45.45554 -29.33038 34355 ft 584 kts 90°
2026-05-05 23:50 45.45024 -29.23447 34356 ft 584 kts 91°
2026-05-05 23:50 45.44376 -29.11928 34348 ft 583 kts 90°
2026-05-05 23:51 45.43717 -29.00431 34360 ft 581 kts 90°
2026-05-05 23:51 45.43049 -28.88954 34359 ft 580 kts 90°
2026-05-05 23:52 45.42372 -28.77510 34359 ft 580 kts 90°
2026-05-05 23:52 45.41684 -28.66077 34359 ft 580 kts 90°
2026-05-05 23:53 45.40983 -28.54627 34360 ft 580 kts 91°
2026-05-05 23:53 45.40269 -28.43177 34355 ft 580 kts 90°
2026-05-05 23:54 45.39550 -28.31848 34360 ft 578 kts 90°
2026-05-05 23:54 45.38819 -28.20474 34367 ft 577 kts 90°
2026-05-05 23:55 45.38078 -28.09122 34355 ft 576 kts 90°
2026-05-05 23:55 45.37326 -27.97767 34360 ft 576 kts 91°
2026-05-05 23:56 45.36562 -27.86414 34360 ft 576 kts 91°
2026-05-05 23:56 45.35786 -27.75052 34377 ft 577 kts 91°
2026-05-05 23:57 45.34998 -27.63691 34358 ft 577 kts 91°
2026-05-05 23:57 45.34203 -27.52384 34357 ft 578 kts 91°
2026-05-05 23:58 45.33393 -27.41027 34361 ft 578 kts 91°
2026-05-05 23:58 45.32568 -27.29636 34372 ft 578 kts 91°
2026-05-05 23:59 45.31733 -27.18251 34366 ft 580 kts 91°
2026-05-05 23:59 45.30885 -27.06852 34369 ft 580 kts 91°
2026-05-06 00:00 45.30026 -26.95472 34372 ft 580 kts 91°
2026-05-06 00:00 45.29155 -26.84080 34374 ft 580 kts 91°
2026-05-06 00:01 45.28272 -26.72673 34372 ft 581 kts 91°
2026-05-06 00:01 45.27377 -26.61259 34372 ft 582 kts 91°
2026-05-06 00:02 45.26469 -26.49831 34368 ft 582 kts 91°
2026-05-06 00:02 45.25550 -26.38433 34372 ft 580 kts 91°
2026-05-06 00:03 45.24628 -26.27139 34375 ft 579 kts 91°
2026-05-06 00:03 45.23691 -26.15789 34374 ft 579 kts 91°
2026-05-06 00:04 45.22745 -26.04460 34374 ft 579 kts 91°
2026-05-06 00:04 45.21786 -25.93113 34375 ft 579 kts 91°
2026-05-06 00:05 45.20326 -25.76116 34371 ft 578 kts 91°
2026-05-06 00:06 45.19342 -25.64809 34371 ft 578 kts 91°
2026-05-06 00:06 45.18345 -25.53491 34369 ft 578 kts 91°
2026-05-06 00:07 45.17336 -25.42167 34366 ft 578 kts 91°
2026-05-06 00:07 45.16317 -25.30878 34377 ft 577 kts 91°
2026-05-06 00:08 45.15294 -25.19667 34363 ft 577 kts 91°
2026-05-06 00:08 45.14254 -25.08394 34366 ft 577 kts 91°
2026-05-06 00:09 45.13203 -24.97119 34366 ft 577 kts 91°
2026-05-06 00:09 45.12143 -24.85869 34358 ft 575 kts 92°
2026-05-06 00:10 45.11074 -24.74652 34365 ft 574 kts 92°
2026-05-06 00:10 45.09996 -24.63447 34358 ft 574 kts 92°
2026-05-06 00:11 45.08905 -24.52225 34355 ft 574 kts 92°
2026-05-06 00:11 45.07806 -24.41055 34357 ft 573 kts 92°
2026-05-06 00:12 45.06696 -24.29883 34357 ft 573 kts 92°
2026-05-06 00:12 45.05579 -24.18743 34355 ft 573 kts 92°
2026-05-06 00:13 45.04455 -24.07645 34352 ft 573 kts 92°
2026-05-06 00:13 45.03315 -23.96503 34353 ft 573 kts 92°
2026-05-06 00:14 45.02163 -23.85362 34352 ft 573 kts 92°
2026-05-06 00:14 45.01000 -23.74222 34352 ft 572 kts 92°
2026-05-06 00:15 44.99828 -23.63099 34353 ft 572 kts 92°
2026-05-06 00:15 44.98644 -23.51982 34354 ft 572 kts 92°
2026-05-06 00:16 44.97450 -23.40856 34351 ft 572 kts 92°
2026-05-06 00:16 44.96246 -23.29740 34353 ft 572 kts 92°
2026-05-06 00:17 44.95032 -23.18649 34336 ft 572 kts 92°
2026-05-06 00:17 44.93804 -23.07536 34353 ft 572 kts 92°
2026-05-06 00:18 44.92572 -22.96489 34343 ft 570 kts 92°
2026-05-06 00:18 44.91329 -22.85430 34342 ft 570 kts 92°
2026-05-06 00:19 44.90074 -22.74373 34339 ft 570 kts 92°
2026-05-06 00:19 44.88818 -22.63399 34361 ft 570 kts 93°
2026-05-06 00:20 44.87538 -22.52337 34338 ft 567 kts 93°
2026-05-06 00:20 44.86268 -22.41435 34339 ft 567 kts 93°
2026-05-06 00:21 44.84980 -22.30465 34340 ft 567 kts 93°
2026-05-06 00:21 44.83683 -22.19515 34372 ft 567 kts 94°
2026-05-06 00:22 44.82374 -22.08582 34333 ft 565 kts 94°
2026-05-06 00:22 44.81061 -21.97692 34331 ft 564 kts 94°
2026-05-06 00:23 44.79740 -21.86814 34327 ft 564 kts 94°
2026-05-06 00:23 44.78406 -21.75931 34329 ft 564 kts 94°
2026-05-06 00:24 44.77063 -21.65062 34332 ft 561 kts 95°
2026-05-06 00:24 44.75715 -21.54244 34329 ft 561 kts 95°
2026-05-06 00:25 44.74367 -21.43501 34327 ft 561 kts 95°
2026-05-06 00:25 44.72998 -21.32683 34327 ft 561 kts 95°
2026-05-06 00:26 44.71621 -21.21894 34327 ft 558 kts 95°
2026-05-06 00:26 44.70241 -21.11169 34311 ft 557 kts 95°
2026-05-06 00:27 44.68854 -21.00459 34327 ft 556 kts 95°
2026-05-06 00:27 44.67458 -20.89763 34323 ft 557 kts 96°
2026-05-06 00:28 44.66053 -20.79084 34319 ft 555 kts 96°
2026-05-06 00:28 44.64642 -20.68449 34314 ft 552 kts 96°
2026-05-06 00:29 44.63229 -20.57867 34312 ft 551 kts 96°
2026-05-06 00:29 44.61805 -20.47279 34310 ft 551 kts 96°
2026-05-06 00:30 44.60381 -20.36767 34323 ft 551 kts 97°
2026-05-06 00:30 44.58940 -20.26215 34306 ft 550 kts 97°
2026-05-06 00:31 44.57491 -20.15673 34306 ft 551 kts 97°
2026-05-06 00:31 44.56029 -20.05120 34306 ft 550 kts 97°
2026-05-06 00:32 44.54563 -19.94609 34322 ft 550 kts 97°
2026-05-06 00:32 44.53084 -19.84077 34298 ft 550 kts 97°
2026-05-06 00:33 44.51847 -19.75322 34301 ft 551 kts 97°